NOAA 16 DEB, 41298

Orbit data source: Space-Track

NOAA 16 DEB, 41298 is space debris in SSO originally from a launch on Thu, 21 Sep 2000 UTC launched from the Air Force Western Test Range (AFWTR). Debris objects in space refer to the collection of defunct objects orbiting the Earth. Examples of debris include non-operational satellites, rocket bodies, and fragments generated from explosions, collisions, or faulty payload assembly.

Loading next visibility...
Identifier
41298, 2000-055HA
Orbit
SSO
Country
Flag of USUS
Related business
Manufacturer
Unknown
Mission
Spacecraft
Bus & Motor
Unknown
Mass
Unknown
Launch date (UTC)
2000-09-21 (25 years ago)
Launch vehicle
Unknown
Launch site
Air Force Western Test Range (AFWTR)
Object type
Payload
Rocket body
Debris
Shape & HBR
Unknown shape, 0.1 m
Radar Cross Section
Small (<0.1 m²)

Expand to show TLE details & history
Last TLE update: 2 days ago

TLE from 2 days ago
0 NOAA 16 DEB
1 41298U 00055HA  25299.65015264  .00004325  00000-0  18200-2 0  9997
2 41298  98.7245  11.5202 0048119 347.1222  12.8726 14.25662157507373
Epoch: 2025-10-26T15:36Z
TLE epoch observation values (Epoch: 2025-10-26T15:36:13.188Z)
Latitude
0.00008°
Longitude
102.20193°
Altitude
775.489 km
Speed
7.484 km/s
True Right ascension
00h 46m 04s
True Declination
0° 00' 00"
Sunlit
Object was in full shadow at epoch
Visualization orbit readout
Latitude
Unknown
Longitude
Unknown
Altitude
Unknown
Speed
Unknown
Apparent Right ascension
Unknown
Apparent Declination
Unknown
Sunlit
N/A
Visualization observer readout
Local Sidereal Time
16:03:32
Azimuth
Unknown
Elevation
Unknown
Doppler factor
Unknown
Orbital elements
Apogee altitude
837.976 km
Perigee altitude
768.862 km
Semi-major axis
7,181.556 km
Eccentricity
0.00481
Inclination
98.7245°
RAAN
11.5202°
Arg. of periapsis
347.1222°
True anomaly
12.99617°
Mean anomaly
12.8726°
Eccentric anomaly
12.93431°
Mean motion
3.56628 °/min
Orbital period
100.95 mins
BSTAR
0.00182
Loading maneuver chart data...
Computing Atmospheric mass density...
Loading historical data...
Loading historical data...
Loading historical data...
Loading historical data...
Loading historical data...
Loading historical data...
Loading historical data...

Documentation

Showing up to 5 results
|